Weather in Dauin

Philippines     9°10′15″N   123°14′44″E
temp.,
°C
wind,
m/s
gust,
m/s
humid.,
%
clouds,
%
prec.,
mm/h
press.,
hPa
HPBL,
m
22 january, fri
fri2223:00+23nne119096 0.1 101034
02:00+23nw118795 0.4 100933
05:00+23s1295100 1.6 100983
08:00+24w118796 2.3 101177
11:00+26se118094 2.0 1010466
14:00+26se118897 7.2 1008156
17:00+24se119299 1.9 100878
20:00+24e1293100 2.6 101078
23 january, sat
sat2323:00+23nne119299 0.6 101057
02:00+23nne229374 0.6 100971
05:00+22ne239397 0.0 100893
08:00+25nne249094 0.0 1010352
11:00+28ne337683 0.3 1010687
14:00+28ne236859 1.5 1008688
17:00+26nne238356 0.9 1008194
20:00+24nnw128676 2.0 101033
24 january, sun
sun2423:00+23nnw1289100 0.3 101153
02:00+23n229182 0.3 100952
05:00+22n349598 0.1 1009128
08:00+25nne358699 0.1 1011482
11:00+27ne4678100 0.1 1011738
14:00+27ne4572100 0.1 1008773
17:00+25nne348656 0.7 1008321
20:00+23n248958 0.9 101086
25 january, mon
mon2523:00+23n3492100 0.1 1011129
02:00+23n359192 0.3 1010192
05:00+23nne489599 0.5 1010452
08:00+23nne489499 1.5 1011429
11:00+26ne688073 0.3 1011888
14:00+27ne687538 0.4 1008962
17:00+25nne588394 0.1 1008637
20:00+23nne5118859 0.1 1010559
26 january, tue
tue2623:00+23ne711863 0.0 1010795
02:00+22ne610908 0.0 1009612
05:00+22ne6108768 0.0 1009603
08:00+24ne6108669 0.1 1010887
11:00+26ne698085 0.7 1010915
14:00+26ne678378 2.1 1007708
17:00+25nne588285 0.4 1007527
20:00+23nne488484 0.5 1009367